GW1714 Weather Reports


time (UTC)temp
F
wind
direction
speed
knots
gust
knots
rain 1hr
in
rain 24hr
in
rain mn
in
humidity
%
barometer
mb
20260509022053 62 8 0.0 0.9 0.00 0.00 0.00 60 1031.4
20260509021550 62 0 1.7 1.7 0.00 0.00 0.00 60 1031.1
20260509021047 62 356 1.7 2.6 0.00 0.00 0.00 59 1031.1
20260509020545 62 357 1.7 2.6 0.00 0.00 0.00 61 1031.2
20260509020041 62 346 1.7 2.6 0.00 0.00 0.00 62 1031.1
20260509015541 62 352 0.0 1.7 0.00 0.00 0.00 59 1031.2
20260509015037 62 356 1.7 1.7 0.00 0.00 0.00 57 1031.1
20260509014534 62 355 1.7 1.7 0.00 0.00 0.00 59 1031.0
20260509014030 62 354 2.6 2.6 0.00 0.00 0.00 59 1031.1
20260509013527 62 351 1.7 2.6 0.00 0.00 0.00 61 1031.1
20260509013022 62 19 1.7 2.6 0.00 0.00 0.00 61 1031.0
20260509012520 62 36 2.6 3.5 0.00 0.00 0.00 61 1030.9
20260509012016 62 12 1.7 3.5 0.00 0.00 0.00 62 1030.9
20260509011514 62 46 3.5 4.3 0.00 0.00 0.00 63 1031.2
20260509011011 62 28 1.7 2.6 0.00 0.00 0.00 64 1031.0
20260509010509 62 40 2.6 4.3 0.00 0.00 0.00 64 1030.9
20260509010006 62 43 3.5 4.3 0.00 0.00 0.00 65 1030.7
20260509005504 62 15 1.7 2.6 0.00 0.00 0.00 66 1030.9
20260509005004 63 5 2.6 2.6 0.00 0.00 0.00 62 1031.1
20260509004501 64 29 2.6 4.3 0.00 0.00 0.00 59 1030.8
20260509003958 64 56 1.7 5.2 0.00 0.00 0.00 59 1030.9
20260509003456 64 46 4.3 5.2 0.00 0.00 0.00 60 1030.9
20260509002953 64 25 4.3 4.3 0.00 0.00 0.00 60 1030.8
20260509002451 64 40 2.6 3.5 0.00 0.00 0.00 61 1031.0
20260509001948 64 30 1.7 2.6 0.00 0.00 0.00 63 1030.9
20260509001444 65 58 2.6 2.6 0.00 0.00 0.00 60 1030.8
20260509000941 66 30 1.7 2.6 0.00 0.00 0.00 57 1031.0
20260509000440 66 12 0.0 2.6 0.00 0.00 0.00 56 1031.0
20260508235935 66 54 0.9 2.6 0.00 0.00 0.00 55 1030.8
20260508235433 66 38 2.6 4.3 0.00 0.00 0.00 52 1030.8
20260508234929 66 14 0.9 1.7 0.00 0.00 0.00 52 1030.7
20260508234426 66 101 0.0 2.6 0.00 0.00 0.00 52 1030.9
20260508233924 66 6 0.0 3.5 0.00 0.00 0.00 51 1030.9
20260508233423 67 37 2.6 2.6 0.00 0.00 0.00 52 1030.9
20260508232919 67 348 0.9 3.5 0.00 0.00 0.00 51 1030.9
20260508232416 67 45 1.7 2.6 0.00 0.00 0.00 51 1030.8
20260508231914 68 51 1.7 3.5 0.00 0.00 0.00 51 1031.0
20260508231410 69 33 1.7 1.7 0.00 0.00 0.00 52 1030.9
20260508230907 69 128 0.0 1.7 0.00 0.00 0.00 47 1031.1
20260508230404 69 75 0.0 3.5 0.00 0.00 0.00 47 1030.9
20260508225856 68 33 1.7 2.6 0.00 0.00 0.00 48 1031.0
20260508225352 69 101 0.0 1.7 0.00 0.00 0.00 46 1030.8
20260508224850 67 0 0.0 0.9 0.00 0.00 0.00 50 1030.7
20260508224347 68 349 0.0 0.0 0.00 0.00 0.00 49 1030.7
20260508223845 69 19 1.7 2.6 0.00 0.00 0.00 48 1031.1
20260508223342 68 29 1.7 3.5 0.00 0.00 0.00 48 1031.0
20260508222839 69 90 0.0 2.6 0.00 0.00 0.00 49 1030.7
20260508222336 69 73 2.6 4.3 0.00 0.00 0.00 46 1031.0
20260508221833 70 151 0.9 2.6 0.00 0.00 0.00 50 1030.9
20260508221328 70 29 0.0 3.5 0.00 0.00 0.00 45 1031.1
20260508220825 71 40 1.7 1.7 0.00 0.00 0.00 46 1031.0
20260508220321 70 60 1.7 3.5 0.00 0.00 0.00 47 1031.0
20260508215818 72 139 1.7 2.6 0.00 0.00 0.00 42 1030.9
20260508215315 74 36 1.7 2.6 0.00 0.00 0.00 41 1031.0
20260508214812 74 106 0.0 1.7 0.00 0.00 0.00 41 1031.0
20260508214309 72 180 0.0 1.7 0.00 0.00 0.00 45 1031.1
20260508213805 72 174 0.0 2.6 0.00 0.00 0.00 44 1031.0
20260508213302 73 82 1.7 4.3 0.00 0.00 0.00 42 1031.0
20260508212758 71 168 0.0 2.6 0.00 0.00 0.00 42 1031.0
20260508212255 72 187 3.5 3.5 0.00 0.00 0.00 43 1031.3
20260508211751 71 90 0.0 6.1 0.00 0.00 0.00 40 1031.0
20260508211246 71 11 4.3 6.1 0.00 0.00 0.00 43 1031.0
20260508210745 74 357 2.6 2.6 0.00 0.00 0.00 47 1031.1
20260508210241 72 105 0.9 2.6 0.00 0.00 0.00 45 1031.2
20260508205738 73 144 2.6 2.6 0.00 0.00 0.00 44 1031.3
20260508205234 73 15 0.0 2.6 0.00 0.00 0.00 43 1031.0
20260508204731 70 87 2.6 5.2 0.00 0.00 0.00 46 1031.0
20260508204227 68 106 0.0 1.7 0.00 0.00 0.00 53 1031.1
20260508203723 68 31 3.5 6.1 0.00 0.00 0.00 50 1031.4
20260508203220 70 26 2.6 4.3 0.00 0.00 0.00 49 1031.1
20260508202716 70 18 2.6 2.6 0.00 0.00 0.00 53 1031.2
20260508202213 69 0 0.0 2.6 0.00 0.00 0.00 53 1031.0
20260508201710 69 28 0.0 1.7 0.00 0.00 0.00 52 1031.1
20260508201206 69 14 0.9 6.1 0.00 0.00 0.00 53 1031.1
20260508200703 68 154 1.7 3.5 0.00 0.00 0.00 55 1031.2
20260508200159 69 180 0.0 2.6 0.00 0.00 0.00 53 1031.3
20260508195656 70 14 4.3 4.3 0.00 0.00 0.00 53 1031.4
20260508195153 70 151 0.9 2.6 0.00 0.00 0.00 50 1031.8
20260508194649 70 162 0.9 1.7 0.00 0.00 0.00 50 1031.5
20260508194146 70 189 1.7 2.6 0.00 0.00 0.00 54 1031.6
20260508193643 70 156 1.7 2.6 0.00 0.00 0.00 56 1032.2
20260508193140 70 133 2.6 3.5 0.00 0.00 0.00 53 1032.4
20260508192637 70 180 0.0 0.0 0.00 0.00 0.00 55 1032.4
20260508192134 70 154 1.7 3.5 0.00 0.00 0.00 52 1032.5
20260508191630 69 145 0.0 3.5 0.00 0.00 0.00 54 1032.7
20260508191127 69 159 1.7 4.3 0.00 0.00 0.00 53 1032.8
20260508190625 69 189 0.0 3.5 0.00 0.00 0.00 56 1032.6
20260508190121 69 172 1.7 3.5 0.00 0.00 0.00 50 1032.5
20260508185618 69 41 1.7 3.5 0.00 0.00 0.00 53 1032.7
20260508185115 69 67 2.6 5.2 0.00 0.00 0.00 49 1032.9
20260508184613 70 82 0.0 2.6 0.00 0.00 0.00 55 1032.8
20260508184110 68 180 0.9 1.7 0.00 0.00 0.00 49 1033.0
20260508183606 68 148 2.6 2.6 0.00 0.00 0.00 51 1032.7
20260508183102 68 174 2.6 3.5 0.00 0.00 0.00 50 1033.0
20260508182558 68 144 2.6 3.5 0.00 0.00 0.00 52 1033.2
20260508182055 68 13 3.5 3.5 0.00 0.00 0.00 51 1033.3
20260508181555 67 174 0.9 2.6 0.00 0.00 0.00 52 1033.2
20260508181054 67 186 0.9 1.7 0.00 0.00 0.00 50 1033.2
20260508180550 67 188 1.7 1.7 0.00 0.00 0.00 52 1033.2
20260508180046 67 24 1.7 4.3 0.00 0.00 0.00 49 1033.1
20260508175543 66 161 1.7 3.5 0.00 0.00 0.00 54 1033.4
20260508175040 66 340 0.0 2.6 0.00 0.00 0.00 50 1033.3
20260508174538 65 145 0.9 3.5 0.00 0.00 0.00 57 1033.4
20260508174035 64 180 0.0 1.7 0.00 0.00 0.00 56 1033.2
20260508173532 65 180 1.7 3.5 0.00 0.00 0.00 53 1033.6
20260508173027 64 191 1.7 2.6 0.00 0.00 0.00 54 1033.7
20260508172525 64 147 0.0 1.7 0.00 0.00 0.00 53 1033.8
20260508172021 64 170 1.7 3.5 0.00 0.00 0.00 53 1033.9
20260508171518 64 127 1.7 2.6 0.00 0.00 0.00 54 1033.8
20260508171014 63 144 1.7 1.7 0.00 0.00 0.00 53 1034.3
20260508170512 63 71 0.9 0.9 0.00 0.00 0.00 60 1034.2
20260508170009 63 180 0.0 1.7 0.00 0.00 0.00 57 1034.4
20260508165506 62 166 0.9 1.7 0.00 0.00 0.00 57 1034.6
20260508165003 62 180 0.9 3.5 0.00 0.00 0.00 59 1034.4
20260508164459 62 163 1.7 1.7 0.00 0.00 0.00 56 1034.4
20260508163956 63 180 0.9 2.6 0.00 0.00 0.00 56 1034.7
20260508163454 63 82 0.9 1.7 0.00 0.00 0.00 54 1034.9
20260508162949 62 152 2.6 2.6 0.00 0.00 0.00 62 1034.9
20260508162447 62 173 0.9 1.7 0.00 0.00 0.00 60 1035.1
20260508161944 61 160 0.0 1.7 0.00 0.00 0.00 58 1035.2
20260508161441 61 166 0.0 1.7 0.00 0.00 0.00 59 1035.2
20260508160938 61 99 0.0 0.0 0.00 0.00 0.00 59 1035.3
20260508160438 61 147 1.7 1.7 0.00 0.00 0.00 62 1035.3
20260508155933 60 29 2.6 2.6 0.00 0.00 0.00 62 1035.2
20260508155430 60 188 0.0 2.6 0.00 0.00 0.00 61 1035.1
20260508154927 60 180 0.0 1.7 0.00 0.00 0.00 63 1035.1
20260508154424 59 156 1.7 2.6 0.00 0.00 0.00 62 1035.3
20260508153921 59 165 0.0 1.7 0.00 0.00 0.00 61 1035.5
20260508153418 59 187 0.0 1.7 0.00 0.00 0.00 62 1035.6
20260508152914 59 28 1.7 4.3 0.00 0.00 0.00 62 1035.3
20260508152411 58 154 0.0 0.0 0.00 0.00 0.00 63 1035.7
20260508151907 59 154 0.0 1.7 0.00 0.00 0.00 65 1035.7
20260508151404 58 180 0.0 0.0 0.00 0.00 0.00 66 1035.9
20260508150900 58 173 0.0 0.0 0.00 0.00 0.00 64 1035.4
20260508150357 57 79 1.7 1.7 0.00 0.00 0.00 60 1035.7
20260508145853 57 180 0.0 0.9 0.00 0.00 0.00 67 1035.7
20260508145349 57 180 0.0 0.9 0.00 0.00 0.00 70 1035.5
20260508144846 57 172 0.0 0.0 0.00 0.00 0.00 74 1035.6
20260508144345 57 126 0.0 0.0 0.00 0.00 0.00 78 1035.5
20260508143842 56 180 0.0 0.0 0.00 0.00 0.00 78 1035.6
20260508143339 56 106 0.0 1.7 0.00 0.00 0.00 77 1035.6
20260508142835 56 154 0.0 0.0 0.00 0.00 0.00 81 1035.6
20260508142332 55 165 0.0 0.9 0.00 0.00 0.00 81 1035.9
20260508141829 55 173 0.0 0.9 0.00 0.00 0.00 83 1035.9
20260508141326 55 157 0.9 0.9 0.00 0.00 0.00 86 1035.9
20260508140823 54 166 0.0 1.7 0.00 0.00 0.00 87 1035.8
20260508140320 54 160 0.9 2.6 0.00 0.00 0.00 89 1036.0
20260508135816 54 168 0.0 1.7 0.00 0.00 0.00 88 1036.3
20260508135312 54 157 0.0 2.6 0.00 0.00 0.00 86 1035.9
20260508134808 54 172 0.0 0.9 0.00 0.00 0.00 85 1035.9
20260508134305 54 99 0.0 0.0 0.00 0.00 0.00 86 1035.9
20260508133802 54 99 0.0 0.9 0.00 0.00 0.00 86 1035.8
20260508133300 53 23 0.0 0.9 0.00 0.00 0.00 86 1035.6
20260508132757 53 117 0.0 1.7 0.00 0.00 0.00 87 1035.9
20260508132254 53 90 0.0 0.0 0.00 0.00 0.00 87 1035.7
20260508131750 52 83 0.9 0.9 0.00 0.00 0.00 87 1035.7
20260508131246 52 114 0.0 0.0 0.00 0.00 0.00 87 1035.7
20260508130743 52 114 0.0 0.0 0.00 0.00 0.00 87 1035.8
20260508130241 52 126 0.0 0.9 0.00 0.00 0.00 87 1035.8
20260508125736 51 6 0.0 0.9 0.00 0.00 0.00 88 1035.8
20260508125232 51 0 1.7 1.7 0.00 0.00 0.00 89 1035.8
20260508124731 51 35 0.0 1.7 0.00 0.00 0.00 89 1035.8
20260508124227 50 0 1.7 1.7 0.00 0.00 0.00 88 1035.9
20260508123726 50 29 0.0 1.7 0.00 0.00 0.00 88 1035.8
20260508123224 50 7 0.0 1.7 0.00 0.00 0.00 90 1035.9
20260508122719 49 20 0.0 0.9 0.00 0.00 0.00 90 1035.7
20260508122216 48 23 0.0 0.9 0.00 0.00 0.00 92 1035.6
20260508121714 48 0 0.0 1.7 0.00 0.00 0.00 94 1035.8
20260508121213 47 12 0.0 1.7 0.00 0.00 0.00 95 1035.7
20260508120709 47 7 0.0 0.0 0.00 0.00 0.00 96 1035.5
20260508120208 47 29 0.0 0.9 0.00 0.00 0.00 96 1035.5
20260508115705 47 114 0.9 1.7 0.00 0.00 0.00 96 1035.3
20260508115202 46 120 0.0 0.0 0.00 0.00 0.00 96 1035.2
20260508114658 46 135 0.0 0.0 0.00 0.00 0.00 96 1035.2
20260508114155 47 135 1.7 1.7 0.00 0.00 0.00 96 1035.1
20260508113652 46 106 0.0 0.9 0.00 0.00 0.00 95 1035.2
20260508113150 47 23 0.0 0.9 0.00 0.00 0.00 95 1034.9
20260508112646 47 157 0.0 1.7 0.00 0.00 0.00 95 1034.9
20260508112143 47 81 0.0 0.0 0.00 0.00 0.00 95 1034.5
20260508111639 47 99 0.0 0.9 0.00 0.00 0.00 95 1034.6
20260508111137 47 29 0.0 0.0 0.00 0.00 0.00 95 1034.6
20260508110629 47 20 0.0 0.0 0.00 0.00 0.00 95 1034.6
20260508110125 47 14 0.0 0.9 0.00 0.00 0.00 95 1034.5
20260508105620 47 66 0.0 0.9 0.00 0.00 0.00 96 1034.6
20260508105117 47 7 0.0 0.0 0.00 0.00 0.00 96 1034.4
20260508104615 46 7 0.0 0.9 0.00 0.00 0.00 96 1034.5
20260508104111 47 15 0.0 0.9 0.00 0.00 0.00 95 1033.9
20260508103608 47 352 0.0 1.7 0.00 0.00 0.00 95 1034.3
20260508103106 47 60 0.9 1.7 0.00 0.00 0.00 95 1034.0
20260508102603 47 29 0.0 1.7 0.00 0.00 0.00 95 1034.0
20260508102101 47 6 0.9 1.7 0.00 0.00 0.00 95 1033.9
20260508101558 47 346 1.7 1.7 0.00 0.00 0.00 95 1034.2
20260508101055 47 0 0.0 1.7 0.00 0.00 0.00 95 1034.0
20260508100553 47 0 1.7 2.6 0.00 0.00 0.00 95 1033.8
20260508100050 47 351 1.7 1.7 0.00 0.00 0.00 95 1033.8
20260508095547 47 0 1.7 1.7 0.00 0.00 0.00 96 1033.9
20260508095043 47 342 0.0 2.6 0.00 0.00 0.00 96 1033.9
20260508094541 47 7 0.0 0.9 0.00 0.00 0.00 96 1033.7
20260508094038 47 0 0.9 1.7 0.00 0.00 0.00 96 1033.7
20260508093534 47 355 1.7 1.7 0.00 0.00 0.00 96 1033.7
20260508093032 48 354 0.9 1.7 0.00 0.00 0.00 96 1033.7
20260508092529 48 352 0.0 1.7 0.00 0.00 0.00 96 1033.6
20260508092029 48 0 0.0 1.7 0.00 0.00 0.00 96 1033.7
20260508091525 48 0 1.7 2.6 0.00 0.00 0.00 96 1033.8
20260508091022 48 356 1.7 2.6 0.00 0.00 0.00 96 1033.8
20260508090520 48 355 1.7 2.6 0.00 0.00 0.00 96 1033.7
20260508090016 48 0 0.9 2.6 0.00 0.00 0.00 95 1033.7
20260508085513 49 353 1.7 1.7 0.00 0.00 0.00 94 1033.8
20260508085010 49 356 1.7 1.7 0.00 0.00 0.00 94 1033.9
20260508084507 49 0 0.9 0.9 0.00 0.00 0.00 93 1033.6
20260508084004 49 0 0.9 1.7 0.00 0.00 0.00 93 1033.8
20260508083501 49 0 1.7 2.6 0.00 0.00 0.00 93 1033.7
20260508082956 49 356 1.7 1.7 0.00 0.00 0.00 92 1033.4
20260508082453 49 6 0.9 1.7 0.00 0.00 0.00 92 1033.6
20260508081951 49 11 0.9 1.7 0.00 0.00 0.00 93 1033.5
20260508081448 49 8 0.0 0.0 0.00 0.00 0.00 93 1033.7
20260508080944 49 7 0.0 0.9 0.00 0.00 0.00 93 1033.5
20260508080443 50 0 0.0 0.9 0.00 0.00 0.00 93 1033.8
20260508075939 50 29 0.0 1.7 0.00 0.00 0.00 93 1033.6
20260508075436 50 0 1.7 1.7 0.00 0.00 0.00 92 1033.7
20260508074933 50 354 0.9 1.7 0.00 0.00 0.00 92 1033.6
20260508074431 50 0 0.9 1.7 0.00 0.00 0.00 91 1033.8
20260508073927 50 0 0.0 1.7 0.00 0.00 0.00 90 1033.7
20260508073425 50 353 0.0 1.7 0.00 0.00 0.00 91 1033.8
20260508072922 50 356 1.7 1.7 0.00 0.00 0.00 89 1033.7
20260508072418 50 352 0.0 0.9 0.00 0.00 0.00 90 1033.7
20260508071916 50 6 0.9 2.6 0.00 0.00 0.00 91 1033.9
20260508071414 50 15 0.0 0.9 0.00 0.00 0.00 92 1033.8
20260508070911 50 353 1.7 1.7 0.00 0.00 0.00 92 1033.7
20260508070409 50 356 1.7 1.7 0.00 0.00 0.00 92 1034.0
20260508065906 50 355 0.9 2.6 0.00 0.00 0.00 90 1033.7
20260508065404 50 0 1.7 1.7 0.00 0.00 0.00 90 1033.7
20260508064902 51 0 0.9 1.7 0.00 0.00 0.00 90 1033.8
20260508064359 51 353 0.9 1.7 0.00 0.00 0.00 87 1033.9
20260508063857 51 7 0.9 1.7 0.00 0.00 0.00 85 1034.0
20260508063354 51 26 0.0 0.9 0.00 0.00 0.00 87 1033.8
20260508062852 52 337 0.0 1.7 0.00 0.00 0.00 89 1034.0
20260508062349 52 0 0.0 1.7 0.00 0.00 0.00 84 1033.8
20260508061846 53 0 0.0 1.7 0.00 0.00 0.00 80 1034.0
20260508061343 52 8 0.0 0.9 0.00 0.00 0.00 79 1033.8
20260508060839 52 14 0.0 0.9 0.00 0.00 0.00 82 1034.0
20260508060338 51 14 0.0 0.9 0.00 0.00 0.00 85 1034.2
20260508055832 51 0 0.0 1.7 0.00 0.00 0.00 88 1034.3
20260508055330 53 344 1.7 1.7 0.00 0.00 0.00 88 1033.9
20260508054826 53 23 0.0 0.0 0.00 0.00 0.00 76 1034.0
20260508054324 52 23 0.0 0.0 0.00 0.00 0.00 82 1034.2
20260508053821 52 8 0.0 0.0 0.00 0.00 0.00 85 1034.3
20260508053318 53 0 0.0 0.0 0.00 0.00 0.00 87 1034.0
20260508052815 53 0 0.0 0.9 0.00 0.00 0.00 83 1033.9
20260508052312 54 0 0.0 0.9 0.00 0.00 0.00 76 1034.3
20260508051809 54 352 0.0 0.0 0.00 0.00 0.00 73 1034.2
20260508051304 53 352 0.0 0.0 0.00 0.00 0.00 78 1034.3
20260508050801 52 0 0.0 0.0 0.00 0.00 0.00 84 1034.3
20260508050258 52 0 0.0 1.7 0.00 0.00 0.00 91 1034.3
20260508045753 53 0 1.7 2.6 0.00 0.00 0.00 94 1033.9
20260508045251 53 7 0.9 0.9 0.00 0.00 0.00 93 1033.7
20260508044749 53 0 0.9 0.9 0.00 0.00 0.00 93 1033.8
20260508044245 53 15 0.0 0.9 0.00 0.00 0.00 94 1034.0
20260508043741 53 8 0.0 0.9 0.00 0.00 0.00 94 1033.8
20260508043239 53 352 0.0 2.6 0.00 0.00 0.00 94 1033.7
20260508042735 53 11 0.9 0.9 0.00 0.00 0.00 95 1033.6
20260508042233 53 0 0.9 2.6 0.00 0.00 0.00 94 1033.8
20260508041729 54 0 1.7 1.7 0.00 0.00 0.00 92 1033.9
20260508041226 54 14 0.0 0.9 0.00 0.00 0.00 89 1033.9
20260508040723 54 8 0.0 0.0 0.00 0.00 0.00 89 1033.7
20260508040220 54 8 0.0 0.0 0.00 0.00 0.00 91 1033.5
20260508035717 54 8 0.0 0.9 0.00 0.15 0.15 92 1033.9
20260508035215 53 23 0.0 0.0 0.00 0.15 0.15 92 1033.5
20260508034711 53 15 0.0 0.9 0.00 0.15 0.15 93 1033.5
20260508034209 53 0 0.0 0.0 0.00 0.15 0.15 94 1033.5
20260508033705 53 0 0.9 1.7 0.00 0.15 0.15 95 1033.5
20260508033204 53 8 0.0 0.9 0.00 0.15 0.15 96 1033.4
20260508032701 53 0 1.7 1.7 0.00 0.15 0.15 96 1033.7
20260508032158 53 0 1.7 1.7 0.00 0.15 0.15 96 1033.7
20260508031654 53 352 1.7 2.6 0.00 0.15 0.15 97 1033.5
20260508031151 53 352 2.6 2.6 0.00 0.15 0.15 96 1033.7
20260508030647 53 355 2.6 2.6 0.00 0.15 0.15 96 1033.7
20260508030145 53 0 2.6 2.6 0.00 0.15 0.15 95 1033.4
20260508025641 53 0 0.0 0.9 0.00 0.15 0.15 95 1033.3
20260508025138 54 0 0.0 0.9 0.00 0.15 0.15 95 1033.1
20260508024634 54 18 0.9 1.7 0.00 0.15 0.15 94 1033.2
20260508024132 54 157 0.0 0.0 0.00 0.15 0.15 93 1033.2
20260508023628 55 159 1.7 1.7 0.00 0.15 0.15 91 1033.2
20260508023126 55 0 0.0 0.0 0.00 0.15 0.15 91 1033.2
20260508022621 55 0 0.0 0.0 0.00 0.15 0.15 91 1033.3